User: anonymous   Login
Location: A O Calhoun Middle School
(33.2198°N, 97.1397°W)
Time: 13:34:23
(UTC+00:00)
Language:

Sich 1 - Orbit

View from above orbital plane
View from above orbital plane
View from above satellite
View from above satellite

Ground track
Ground track

The orbit data is extracted from the following two-line orbital elements,

1 23657U 95046A   22141.89388595  .00001547  00000-0  17093-3 0  9992
2 23657  82.5284   9.3775 0020395 240.3686 119.5500 14.86676773444461
Epoch (UTC): 21 May 2022 21:27:11
Eccentricity: 0.0020395
inclination: 82.5284°
perigee height: 594 km
apogee height: 622 km
right ascension of ascending node: 9.3775°
argument of perigee: 240.3686°
revolutions per day: 14.86676773
mean anomaly at epoch: 119.5500°
orbit number at epoch: 44446

The dashed part of the orbit path shows where the satellite is in the earth's shadow,  

DLR